Meteo orario Abolone

Oggi, 19 Giugno, Sabato

Tempo Temperatura Precipitazioni Vento Pressione Umidità
00:00 +16°C° 0 mm 2 m/s 749 mm Hg 90%
01:00 +15°C° 0 mm 2 m/s 749 mm Hg 92%
02:00 +15°C° 0 mm 2 m/s 749 mm Hg 95%
03:00 +15°C° 0 mm 2 m/s 749 mm Hg 93%
04:00 +16°C° 0 mm 2 m/s 749 mm Hg 90%
05:00 +16°C° 0 mm 1 m/s 749 mm Hg 88%
06:00 +19°C° 0 mm 1 m/s 749 mm Hg 79%
07:00 +20°C° 0 mm 2 m/s 749 mm Hg 71%
08:00 +23°C° 0 mm 2 m/s 750 mm Hg 62%
09:00 +24°C° 0 mm 2 m/s 749 mm Hg 57%
10:00 +25°C° 0 mm 2 m/s 749 mm Hg 51%
11:00 +27°C° 0 mm 2 m/s 749 mm Hg 45%
12:00 +27°C° 0 mm 2 m/s 749 mm Hg 44%
13:00 +28°C° 0 mm 3 m/s 748 mm Hg 43%
14:00 +28°C° 0 mm 3 m/s 748 mm Hg 41%
15:00 +28°C° 0 mm 3 m/s 748 mm Hg 44%
16:00 +27°C° 0 mm 2 m/s 748 mm Hg 48%
17:00 +27°C° 0 mm 2 m/s 748 mm Hg 51%
18:00 +25°C° 0 mm 2 m/s 747 mm Hg 61%
19:00 +23°C° 0 mm 2 m/s 747 mm Hg 71%
20:00 +21°C° 0 mm 1 m/s 747 mm Hg 81%
21:00 +20°C° 0 mm 1 m/s 747 mm Hg 83%
22:00 +19°C° 0 mm 1 m/s 747 mm Hg 85%
23:00 +18°C° 0 mm 1 m/s 747 mm Hg 88%

Domani, 20 Giugno, Domenica

Tempo Temperatura Precipitazioni Vento Pressione Umidità
00:00 +18°C° 0 mm 1 m/s 747 mm Hg 88%
01:00 +18°C° 0 mm 1 m/s 747 mm Hg 89%
02:00 +18°C° 0 mm 1 m/s 748 mm Hg 90%
03:00 +18°C° 0 mm 1 m/s 747 mm Hg 89%
04:00 +19°C° 0 mm 1 m/s 747 mm Hg 88%
05:00 +19°C° 0 mm 1 m/s 747 mm Hg 88%
06:00 +21°C° 0 mm 1 m/s 747 mm Hg 81%
07:00 +23°C° 0 mm 1 m/s 747 mm Hg 75%
08:00 +25°C° 0 mm 2 m/s 747 mm Hg 69%
09:00 +26°C° 0 mm 2 m/s 747 mm Hg 64%
10:00 +28°C° 0 mm 2 m/s 747 mm Hg 59%
11:00 +29°C° 0 mm 2 m/s 747 mm Hg 53%
12:00 +29°C° 0 mm 2 m/s 747 mm Hg 51%
13:00 +30°C° 0 mm 2 m/s 746 mm Hg 49%
14:00 +30°C° 0 mm 2 m/s 746 mm Hg 47%
15:00 +30°C° 0 mm 2 m/s 746 mm Hg 49%
16:00 +30°C° 0 mm 2 m/s 746 mm Hg 51%
17:00 +29°C° 0 mm 2 m/s 745 mm Hg 53%
18:00 +27°C° 0 mm 2 m/s 745 mm Hg 63%
19:00 +25°C° 0 mm 2 m/s 745 mm Hg 73%
20:00 +23°C° 0 mm 1 m/s 745 mm Hg 82%
21:00 +22°C° 0 mm 1 m/s 745 mm Hg 85%
22:00 +21°C° 0 mm 1 m/s 745 mm Hg 87%
23:00 +20°C° 0 mm 1 m/s 745 mm Hg 89%

Dopodomani, 21 Giugno, Lunedi

Tempo Temperatura Precipitazioni Vento Pressione Umidità
00:00 +20°C° 0 mm 1 m/s 745 mm Hg 90%
01:00 +19°C° 0 mm 1 m/s 745 mm Hg 91%
02:00 +19°C° 0 mm 1 m/s 745 mm Hg 92%
03:00 +19°C° 0 mm 1 m/s 745 mm Hg 91%
04:00 +19°C° 0 mm 1 m/s 745 mm Hg 89%
05:00 +20°C° 0 mm 1 m/s 745 mm Hg 87%
06:00 +20°C° 0 mm 2 m/s 745 mm Hg 80%
07:00 +23°C° 0 mm 2 m/s 745 mm Hg 73%
08:00 +24°C° 0 mm 3 m/s 745 mm Hg 67%
09:00 +26°C° 0 mm 3 m/s 745 mm Hg 59%
10:00 +27°C° 0 mm 3 m/s 745 mm Hg 51%
11:00 +29°C° 0 mm 3 m/s 745 mm Hg 43%
12:00 +29°C° 0 mm 4 m/s 745 mm Hg 41%
13:00 +30°C° 0 mm 4 m/s 745 mm Hg 39%
14:00 +32°C° 0 mm 4 m/s 744 mm Hg 37%
15:00 +30°C° 0 mm 4 m/s 744 mm Hg 41%
16:00 +30°C° 0 mm 3 m/s 744 mm Hg 45%
17:00 +30°C° 0 mm 3 m/s 744 mm Hg 50%
18:00 +28°C° 0 mm 3 m/s 744 mm Hg 59%
19:00 +26°C° 0 mm 3 m/s 744 mm Hg 68%
20:00 +24°C° 0 mm 3 m/s 744 mm Hg 77%
21:00 +22°C° 0 mm 3 m/s 744 mm Hg 82%
22:00 +21°C° 0 mm 2 m/s 744 mm Hg 86%
23:00 +20°C° 0 mm 2 m/s 744 mm Hg 91%

22 Giugno, Martedi

Tempo Temperatura Precipitazioni Vento Pressione Umidità
00:00 +20°C° 0 mm 2 m/s 744 mm Hg 93%
01:00 +20°C° 0 mm 2 m/s 744 mm Hg 95%
02:00 +19°C° 0 mm 2 m/s 744 mm Hg 97%
03:00 +20°C° 0 mm 2 m/s 744 mm Hg 94%
04:00 +20°C° 0 mm 2 m/s 744 mm Hg 92%
05:00 +21°C° 0 mm 2 m/s 744 mm Hg 90%
06:00 +22°C° 0 mm 3 m/s 744 mm Hg 80%
07:00 +25°C° 0 mm 3 m/s 744 mm Hg 71%
08:00 +27°C° 0 mm 4 m/s 744 mm Hg 62%
09:00 +28°C° 0 mm 4 m/s 744 mm Hg 55%
10:00 +30°C° 0 mm 4 m/s 744 mm Hg 49%
11:00 +32°C° 0 mm 5 m/s 744 mm Hg 42%
12:00 +33°C° 0 mm 5 m/s 744 mm Hg 40%
13:00 +33°C° 0 mm 4 m/s 744 mm Hg 39%
14:00 +34°C° 0 mm 4 m/s 744 mm Hg 37%
15:00 +34°C° 0 mm 4 m/s 744 mm Hg 40%
16:00 +33°C° 0 mm 4 m/s 744 mm Hg 44%
17:00 +33°C° 0 mm 3 m/s 744 mm Hg 47%
18:00 +30°C° 0 mm 3 m/s 744 mm Hg 57%
19:00 +28°C° 0 mm 3 m/s 744 mm Hg 66%
20:00 +25°C° 0 mm 2 m/s 744 mm Hg 76%
21:00 +24°C° 0 mm 2 m/s 745 mm Hg 80%
22:00 +23°C° 0 mm 2 m/s 745 mm Hg 85%
23:00 +21°C° 0 mm 2 m/s 745 mm Hg 89%

23 Giugno, Mercoledi

Tempo Temperatura Precipitazioni Vento Pressione Umidità
00:00 +21°C° 0 mm 2 m/s 745 mm Hg 92%
01:00 +20°C° 0 mm 2 m/s 745 mm Hg 94%
02:00 +20°C° 0 mm 2 m/s 745 mm Hg 97%
03:00 +20°C° 0 mm 2 m/s 746 mm Hg 96%
04:00 +21°C° 0 mm 2 m/s 746 mm Hg 94%
05:00 +21°C° 0 mm 2 m/s 746 mm Hg 93%
06:00 +24°C° 0 mm 2 m/s 746 mm Hg 84%
07:00 +26°C° 0 mm 3 m/s 746 mm Hg 75%
08:00 +28°C° 0 mm 3 m/s 746 mm Hg 66%
09:00 +29°C° 0 mm 3 m/s 746 mm Hg 60%
10:00 +32°C° 0 mm 4 m/s 746 mm Hg 53%
11:00 +33°C° 0 mm 4 m/s 746 mm Hg 46%
12:00 +34°C° 0 mm 4 m/s 746 mm Hg 43%
13:00 +34°C° 0 mm 3 m/s 746 mm Hg 40%
14:00 +35°C° 0 mm 3 m/s 746 mm Hg 37%
15:00 +34°C° 0 mm 3 m/s 746 mm Hg 41%
16:00 +32°C° 0 mm 2 m/s 746 mm Hg 46%
17:00 +32°C° 0 mm 2 m/s 746 mm Hg 50%
18:00 +30°C° 0 mm 2 m/s 746 mm Hg 58%
19:00 +28°C° 0 mm 2 m/s 746 mm Hg 66%
20:00 +26°C° 0 mm 2 m/s 746 mm Hg 75%
21:00 +25°C° 0 mm 2 m/s 746 mm Hg 78%
22:00 +24°C° 0 mm 2 m/s 746 mm Hg 81%
23:00 +23°C° 0 mm 2 m/s 746 mm Hg 85%

24 Giugno, Giovedi

Tempo Temperatura Precipitazioni Vento Pressione Umidità
00:00 +23°C° 0 mm 2 m/s 746 mm Hg 87%
01:00 +21°C° 0 mm 2 m/s 746 mm Hg 89%
02:00 +21°C° 0 mm 2 m/s 746 mm Hg 91%
03:00 +21°C° 0 mm 2 m/s 746 mm Hg 90%
04:00 +22°C° 0 mm 1 m/s 746 mm Hg 89%
05:00 +22°C° 0 mm 1 m/s 746 mm Hg 88%
06:00 +24°C° 0 mm 2 m/s 747 mm Hg 80%
07:00 +26°C° 0 mm 2 m/s 747 mm Hg 71%
08:00 +28°C° 0 mm 2 m/s 747 mm Hg 63%
09:00 +29°C° 0 mm 3 m/s 747 mm Hg 57%
10:00 +31°C° 0 mm 3 m/s 747 mm Hg 51%
11:00 +33°C° 0 mm 3 m/s 747 mm Hg 45%
12:00 +33°C° 0 mm 3 m/s 747 mm Hg 43%
13:00 +34°C° 0 mm 3 m/s 746 mm Hg 41%
14:00 +34°C° 0 mm 3 m/s 746 mm Hg 40%
15:00 +34°C° 0 mm 3 m/s 746 mm Hg 44%
16:00 +33°C° 0 mm 3 m/s 746 mm Hg 48%
17:00 +32°C° 0 mm 2 m/s 746 mm Hg 52%
18:00 +30°C° 0 mm 2 m/s 746 mm Hg 61%
19:00 +28°C° 0 mm 2 m/s 745 mm Hg 70%
20:00 +26°C° 0 mm 2 m/s 745 mm Hg 79%
21:00 +25°C° 0 mm 2 m/s 745 mm Hg 82%
22:00 +24°C° 0 mm 2 m/s 745 mm Hg 85%
23:00 +23°C° 0 mm 2 m/s 746 mm Hg 88%
Mostrare altro

Abbiamo bisogno del tuo consenso

Meteoprog e i nostri fornitori di servizi possono memorizzare e accedere a dati personali come cookie, identificatori di dispositivi o altre tecnologie simili sul tuo dispositivo e possono elaborare tali dati per personalizzare i contenuti e gli annunci, nonché fornire funzionalità dei social media e analizzarne il traffico.

  • Archiviare e/o accedere alle informazioni sul tuo dispositivo

    Cookie, identificatori di dispositivi o altre informazioni possono essere memorizzati o resi accessibili sul tuo dispositivo per le finalità sopra indicate.

  • Annunci e contenuti personalizzati, misurazione di annunci e contenuti, approfondimenti sul pubblico e sviluppo di prodotti

    Gli annunci e i contenuti possono essere personalizzati in base a un profilo. È possibile aggiungere più dati per personalizzare meglio annunci e contenuti. È possibile misurare il rendimento degli annunci e dei contenuti. È possibile ricavare informazioni sul pubblico che ha visto gli annunci e i contenuti. Tali dati possono essere utilizzati per sviluppare o migliorare l'esperienza, i sistemi e il software dell'utente.

Cliccando su “Accetto”, acconsenti all'uso di cookie, identificatori di dispositivo, web beacon o altre tecnologie simili. Puoi modificare le impostazioni nel browser del tuo dispositivo.

Per determinati scopi, è possibile fare affidamento su interessi legali, piuttosto che sul consenso. Puoi approfondire questo argomento consultando la nostra Informativa sulla privacy e sui cookie.